Other Public Products
Issued by NWS Grand Forks, ND

Home | Current Version | Previous Version | Text Only | Print | Product List | Glossary On
Versions: 1 2 3 4 5 6 7 8 9 10 11 12 13 14 15 16 17 18 19 20 21 22 23 24 25 26 27 28 29 30 31 32 33 34 35 36 37 38 39 40 41 42 43 44 45 46 47 48 49 50
000
FPUS83 KFGF 300610
OPUFGF
PRAIRIE TO PINES WEATHER ROUNDUP
NATIONAL WEATHER SERVICE EASTERN NORTH DAKOTA/GRAND FORKS ND
100 AM CDT SUN AUG 30 2015

 **SATELLITE DATA USED TO AUGMENT SKY COVER AT AUTOMATED STATIONS**
 *****  WEATHER ACROSS EASTERN NORTH DAKOTA  *****

CITY           SKY/WX    TMP DP  RH WIND       PRES   REMARKS
GRAND FORKS    FAIR      69  67  93 S12       29.79F
6HR MIN TEMP:  69; 6HR MAX TEMP:  78;

GRAND FORKS AF FAIR      69  68  95 S8        29.79F
GRAND CITY NWS   N/A     68 N/A N/A S10         N/A
BUXTON         NOT AVBL
DEVILS LAKE    FAIR      73  63  68 SE5       29.78F
6HR MIN TEMP:  73; 6HR MAX TEMP:  81;

FARGO          FAIR      69  64  84 S14       29.85F
6HR MIN TEMP:  69; 6HR MAX TEMP:  81;

WAHPETON ARPT  FAIR      64  61  88 S8        29.89F
$$

 *****  WEATHER ACROSS CENTRAL AND WESTERN NORTH DAKOTA  *****

CITY           SKY/WX    TMP DP  RH WIND       PRES   REMARKS
JAMESTOWN      FAIR      70  69  97 S12       29.83S
6HR MIN TEMP:  70; 6HR MAX TEMP:  81;

BISMARCK       PTCLDY    70  64  81 SE9       29.80F
6HR MIN TEMP:  68; 6HR MAX TEMP:  86;

MINOT          FAIR      81  60  48 S9        29.73F
6HR MIN TEMP:  68; 6HR MAX TEMP:  86;

MINOT AFB      FAIR      70  60  72 CALM      29.73F
6HR MIN TEMP:  70; 6HR MAX TEMP:  88;

GARRISON         N/A     73  64  73 S3        29.78S
6HR MIN TEMP:  73; 6HR MAX TEMP:  84;

WILLISTON      MOCLDY    66  54  65 CALM      29.73F HAZE
6HR MIN TEMP:  65; 6HR MAX TEMP:  92;

DICKINSON      NOT AVBL
HETTINGER      PTCLDY    70  54  56 SE8       29.84F
6HR MIN TEMP:  69; 6HR MAX TEMP:  93;

$$

 *****  OTHER OBSERVATIONS NORTHEAST NORTH DAKOTA  *****

CITY           SKY/WX    TMP DP  RH WIND       PRES   REMARKS
WALHALLA       FAIR      70  70 100 MISG      29.76S
LANGDON        FAIR      68  68 100 S10       29.80F
CAVALIER       FAIR      68  66  94 S6        29.77S
GRAFTON        FAIR      66  66 100 SE7       29.79S
CANDO          NOT AVBL
FORT TOTTEN      N/A     73  67  82 S8        29.95
ROLLA          CLOUDY    68  57  68 SW8       29.80S
RUGBY          FAIR      70  61  73 S8        29.76S HAZE
 ***** THE ABOVE OBSERVATIONS ARE NON NWS ARE NOT QUALITY
        CONTROLLED AND MAY MIS-REPORT RAIN FOR SNOW...
$$

 *****  OTHER OBSERVATIONS SOUTHEAST NORTH DAKOTA *****

CITY           SKY/WX    TMP DP  RH WIND       PRES   REMARKS
COOPERSTOWN    NOT AVBL
VALLEY CITY    CLOUDY    70  70 100 S12       29.85S
OAKES            N/A     66  66 100 S10       29.87F
GWINNER          N/A     70  68  94 S13       29.87F
SHEYENNE NWR     N/A     66  65  96 S5        29.95S
BUFFALO        NOT AVBL
WYNDMERE         N/A     64  63  94 SE3         N/A
 ***** THE ABOVE OBSERVATIONS ARE NON NWS ARE NOT QUALITY
       CONTROLLED AND MAY MIS-REPORT RAIN FOR SNOW...
$$

  *****  WEATHER ACROSS NORTHERN MINNESOTA  *****

CITY           SKY/WX    TMP DP  RH WIND       PRES   REMARKS
FLAG ISLAND    FAIR      66  64  94 S8        29.80F
WARROAD        FAIR      66  64  94 SW9       29.83S
ROSEAU         FAIR      66  63  88 S10       29.82S
HALLOCK        FAIR      70  66  88 S12       29.78F
THF RVR FALLS  FAIR     N/A N/A N/A S10       29.84S
HALSTAD        NOT AVBL
FOSSTON        FAIR      63  61  94 S12       29.88F
BAUDETTE       FAIR      66  63  90 S8        29.84F
6HR MIN TEMP:  66; 6HR MAX TEMP:  72;

WASKISH        FAIR      66  63  88 S6        29.87F
CROOKSTON      FAIR      68  64  88 S14       29.84S
$$
  *****  WEATHER ACROSS CENTRAL AND WEST MINNESOTA  *****

CITY           SKY/WX    TMP DP  RH WIND       PRES   REMARKS
BEMIDJI        FAIR      64  62  91 S5        29.90S
PARK RAPIDS    FAIR      62  59  90 SE7       29.94S
6HR MIN TEMP:  62; 6HR MAX TEMP:  73;

WADENA         FAIR      63  61  94 S6        29.94S
DETROIT LAKES  FAIR      64  63  94 S8        29.92F
MOORHEAD       FAIR      66  64  94 S13       29.87S
FERGUS FALLS   FAIR      64  64 100 S10       29.91S
ELBOW LAKE     FAIR      64  63  97 S10       29.92F
6HR MIN TEMP:  64; 6HR MAX TEMP:  71;

MORRIS MN      FAIR      63  63 100 SE8       29.93S
STAPLES        MOCLDY    63  61  94 S7        29.95F
WHEATON        FAIR      63  61  94 SE6       29.92S
$$
  *****  WEATHER ELSEWHERE ACROSS MINNESOTA  *****

CITY           SKY/WX    TMP DP  RH WIND       PRES   REMARKS
DULUTH         FAIR      63  60  90 SW9       29.98S
6HR MIN TEMP:  63; 6HR MAX TEMP:  71;

INTRNTL FALLS  FAIR      65  62  90 S6        29.88F
6HR MIN TEMP:  65; 6HR MAX TEMP:  69;

ELY            FAIR      63  61  94 SW5       29.95S
CLOQUET        FAIR      63  61  94 SW6       29.98S
BRAINERD       FAIR      61  60  97 S7        29.96F
6HR MIN TEMP:  61; 6HR MAX TEMP:  70;

HIBBING        FAIR      61  59  93 S3        29.96S
6HR MIN TEMP:  61; 6HR MAX TEMP:  71;

ALEXANDRIA     FAIR      65  64  97 S10       29.96F
6HR MIN TEMP:  65; 6HR MAX TEMP:  71;

SAINT CLOUD    FAIR      59  59 100 SE5       29.98S FOG
6HR MIN TEMP:  59; 6HR MAX TEMP:  69;

MINNEAPOLIS    FAIR      64  62  93 SE6       30.01S
6HR MIN TEMP:  64; 6HR MAX TEMP:  73;

$$

  *****  WEATHER ACROSS SOUTH DAKOTA  *****

CITY           SKY/WX    TMP DP  RH WIND       PRES   REMARKS
SIOUX FALLS    FAIR      63  60  90 S9        30.00S
6HR MIN TEMP:  63; 6HR MAX TEMP:  72;

BROOKINGS      CLOUDY    64  61  88 S13       29.99F
WATERTOWN      FAIR      64  62  93 S10       29.94F
6HR MIN TEMP:  64; 6HR MAX TEMP:  74;

HURON          CLEAR     66  65  96 S10       29.91S
6HR MIN TEMP:  66; 6HR MAX TEMP:  79;

SISSETON         N/A     64  62  93 S7        29.88F
ABERDEEN       CLEAR     66  64  93 S8        29.88F
6HR MIN TEMP:  66; 6HR MAX TEMP:  81;

MITCHELL       CLEAR     67  65  93 S10       29.94S
PIERRE         CLEAR     75  60  59 S10       29.85F
6HR MIN TEMP:  74; 6HR MAX TEMP:  87;

MOBRIDGE       CLEAR     71  68  90 SE10      29.83F
RAPID CITY     PTCLDY    70  46  42 S6        29.91F
6HR MIN TEMP:  67; 6HR MAX TEMP:  86;

$$

  *****  SOME WEATHER IN NEARBY STATES *****

CITY           SKY/WX    TMP DP  RH WIND       PRES   REMARKS
GLASGOW MT     CLOUDY    75  47  36 CALM      29.69R HAZE
6HR MIN TEMP:  74; 6HR MAX TEMP:  90;

GREAT FALLS MT CLOUDY    61  50  67 SW7       29.80R
6HR MIN TEMP:  61; 6HR MAX TEMP:  74; 6HR PCP:  0.01;

CHEYENNE WY    PTCLDY    66  42  41 S12       30.17F
6HR MIN TEMP:  66; 6HR MAX TEMP:  83;

SCOTTSBLUFF NE PTCLDY    66  46  48 E9        30.03F
6HR MIN TEMP:  64; 6HR MAX TEMP:  88;

OMAHA NE       CLOUDY    68  64  87 S7        30.05S
6HR MIN TEMP:  67; 6HR MAX TEMP:  72;

DES MOINES IA  FAIR      65  62  90 SE3       30.05R
6HR MIN TEMP:  64; 6HR MAX TEMP:  71;

DAVENPORT IA   FOG       60  59  96 CALM      30.05R VSB 1/4
6HR MIN TEMP:  60; 6HR MAX TEMP:  70;

CHICAGO IL     CLOUDY    65  64  97 NE5       30.03S FOG
6HR MIN TEMP:  65; 6HR MAX TEMP:  68; 6HR PCP:  0.05;

EAU CLAIRE WI  FAIR      61  58  90 S5        30.03S
6HR MIN TEMP:  61; 6HR MAX TEMP:  71;

LA CROSSE WI   FAIR      61  60  97 SE3       30.05S
6HR MIN TEMP:  61; 6HR MAX TEMP:  70;

$$

  *****  SOME NATIONAL WEATHER *****

CITY           SKY/WX    TMP DP  RH WIND       PRES   REMARKS
LA GUARDIA NY  MOCLDY    75  59  57 SW10      30.09F
6HR MIN TEMP:  75; 6HR MAX TEMP:  77;



USA.gov is the U.S. government's official web portal to all federal, state and local government web resources and services.